TimeCDT,TemperatureF,Dew PointF,Humidity,Sea Level PressureIn,VisibilityMPH,Wind Direction,Wind SpeedMPH,Gust SpeedMPH,PrecipitationIn,Events,Conditions,WindDirDegrees,DateUTC
1:53 AM,46.0,35.1,66,30.24,10.0,SSE,6.9,-,N/A,,Mostly Cloudy,160,2012-10-13 06:53:00
2:53 AM,48.0,30.9,52,30.19,10.0,South,9.2,-,0.00,Rain,Light Rain,180,2012-10-13 07:53:00
3:53 AM,46.9,32.0,56,30.15,10.0,South,9.2,-,0.00,Rain,Light Rain,170,2012-10-13 08:53:00
4:53 AM,44.1,37.0,76,30.14,5.0,South,8.1,-,0.09,Rain,Rain,170,2012-10-13 09:53:00
5:53 AM,46.0,37.9,73,30.12,10.0,SSE,10.4,-,0.02,,Overcast,150,2012-10-13 10:53:00
6:53 AM,46.0,39.0,76,30.10,9.0,SSE,9.2,-,0.04,Rain,Light Rain,160,2012-10-13 11:53:00
7:53 AM,46.0,42.1,86,30.10,10.0,East,5.8,-,0.00,,Overcast,100,2012-10-13 12:53:00
8:53 AM,48.0,42.1,80,30.04,10.0,SE,9.2,-,0.00,,Overcast,140,2012-10-13 13:53:00
9:53 AM,52.0,44.1,74,30.01,10.0,SSE,12.7,-,N/A,,Overcast,160,2012-10-13 14:53:00
10:53 AM,54.0,46.9,77,29.98,10.0,South,11.5,-,N/A,,Overcast,190,2012-10-13 15:53:00
11:49 AM,55.4,50.0,82,29.96,7.0,SSW,12.7,-,0.00,Rain,Light Rain,210,2012-10-13 16:49:00
11:53 AM,55.0,50.0,83,29.96,6.0,SSW,12.7,-,0.00,Rain,Light Rain,200,2012-10-13 16:53:00
12:41 PM,55.4,51.8,88,29.90,4.0,SSW,10.4,-,0.04,Rain,Light Rain,200,2012-10-13 17:41:00
12:53 PM,55.0,52.0,89,29.90,5.0,South,9.2,-,0.04,Rain,Light Rain,190,2012-10-13 17:53:00
1:53 PM,55.9,53.1,90,29.89,5.0,SSW,12.7,-,0.00,Rain,Light Rain,200,2012-10-13 18:53:00
3:53 PM,57.9,55.0,90,29.83,3.0,SSW,8.1,-,0.02,Rain,Light Rain,200,2012-10-13 20:53:00
4:53 PM,59.0,57.0,93,29.82,2.5,SSW,11.5,-,0.07,,Overcast,200,2012-10-13 21:53:00
5:53 PM,61.0,59.0,93,29.80,2.5,SSW,17.3,23.0,N/A,,Overcast,210,2012-10-13 22:53:00
7:53 PM,64.0,60.1,87,29.82,4.0,SW,12.7,-,N/A,,Overcast,220,2012-10-14 00:53:00
8:51 PM,64.4,60.8,88,29.80,3.0,SSW,10.4,-,N/A,,Overcast,200,2012-10-14 01:51:00
8:53 PM,64.0,61.0,90,29.81,3.0,SSW,10.4,-,N/A,,Overcast,200,2012-10-14 01:53:00
9:00 PM,64.4,60.8,88,29.80,3.0,SSW,10.4,-,N/A,,Overcast,210,2012-10-14 02:00:00
9:53 PM,64.0,61.0,90,29.80,4.0,SSW,10.4,-,N/A,,Overcast,210,2012-10-14 02:53:00